Torna al catalogo

STARLINK-3786

AttivoComunicazioniVLEO
NORAD 52263·PAYLOAD·🇺🇸 United States

Lanciato Apr 21, 2022 da Cape Canaveral Space Force Station

Loading…

Prossimi Passaggi (prossime 24 ore)

TLE

AggiornatoSource: CelesTrak SupGP

Epoca: Sep 14, 2026, 21:40 UTC

1 52263C 22041C   26257.90326389 -.00033273  00000+0 -10096-2 0  2573
2 52263  53.1591 333.7642 0001413  72.2180 173.8812 15.33565082    10

Traccia STARLINK-3786 in tempo reale con AllMySat

Download on the App Store